Terminal Aerodrome Forecast
Issued by NWS

Home | Current Version | Previous Version | Text Only | Print | Product List | Glossary On
Versions: 1 2 3 4 5 6 7 8 9 10 11 12 13 14 15 16 17 18 19 20 21 22 23
000
FTUS43 KGRB 312300
TAFMTW
TAF
KMTW 312323Z 0100/0124 15007KT 6SM BR BKN004
      TEMPO 0100/0101 4SM BR
     FM010300 17004KT P6SM SCT007 BKN100
     FM010900 18005KT 5SM BR SCT007 BKN090
     FM011300 19008KT P6SM BKN090
     FM011600 20010G16KT 3SM SHRA VCTS BKN020CB OVC040
     FM011900 24015G22KT P6SM VCSH SCT025 BKN035=

USA.gov is the U.S. government's official web portal to all federal, state and local government web resources and services.